[[{"header":{"parameterUnit":"m.s-1","parameterCategory":1,"la1":30.2991,"la2":30.254,"lo1":-89.0895,"lo2":-89.0444,"dy":0.0017,"dx":0.0017,"nx":28,"ny":28,"refTime":"2023-07-31T21:00:00:Z","depth":0,"parameterNumber":2,"parameterNumberName":"U-component_of_WINDS"},"data":[0,0,0,0,0,0,0,0,0,0,0,0,0,0,0,0,0,0,0,0,0,0,0,0,0,0,0,0,0,0,0,0,0,0,0,0,0,0,0,0,0,0,0,0,0,0,0,0,0,0,0,0,0,0,0,0,0,0,2.4262,2.4262,0,2.4238,2.4238,2.4238,2.4147,2.4145,2.4143,2.4141,2.4119,2.412,2.4122,0,0,0,0,0,0,0,0,0,0,0,0,0,2.4232,2.4233,2.4262,2.4262,2.4261,2.4239,2.4238,2.4238,2.4147,2.4145,2.4142,2.414,2.4118,2.412,2.4122,0,0,0,0,0,0,0,0,0,0,0,0,0,2.423,2.4233,2.4262,2.4213,2.4209,2.4239,2.4238,2.4238,2.4148,2.4145,2.4141,2.4139,2.4118,2.412,2.4122,2.4197,0,0,2.4128,2.4129,0,0,0,0,0,0,0,0,2.4231,2.4232,2.4221,2.4217,2.4212,2.4192,2.4219,2.4224,2.4149,2.4171,2.4141,2.4137,2.4146,2.4146,2.4148,2.4196,2.4195,2.4128,2.413,2.413,2.4131,0,0,0,0,0,0,0,2.4231,2.4232,2.4253,2.4221,2.4215,2.4194,2.419,2.422,2.4176,2.4169,2.4162,2.416,2.4143,2.4146,2.4147,2.4195,2.4128,2.413,2.4131,2.4132,2.4308,2.4311,0,0,0,0,0,0,2.4237,2.4233,2.4253,2.4252,2.4213,2.4197,2.4193,2.4202,2.4176,2.4169,2.4163,2.4156,2.4144,2.4145,2.4146,2.4235,2.413,2.4132,2.4134,2.4304,2.4309,2.4312,0,0,0,0,0,0,2.4237,2.424,2.4254,2.4241,2.4241,2.4201,2.4212,2.4203,2.4206,2.4172,2.4164,2.4175,2.4142,2.4143,2.4186,2.4233,2.4133,2.4135,2.43,2.4306,2.431,2.4412,0,0,0,0,0,0,2.4237,2.424,2.4268,2.4242,2.4242,2.4294,2.4214,2.4205,2.421,2.4201,2.418,2.4174,2.4139,2.4183,2.4188,2.4234,2.4137,2.4296,2.4303,2.4309,2.4404,2.442,2.4433,0,0,0,0,0,2.4236,2.4297,2.427,2.4273,2.4275,2.4297,2.4297,2.4256,2.4214,2.4242,2.422,2.4174,2.4227,2.4188,2.4193,2.424,2.4293,2.4301,2.4308,2.4398,2.4417,2.4433,0,0,0,0,0,0,2.4329,2.4293,2.4262,2.4316,2.431,2.4281,2.4315,2.4277,2.4283,2.4274,2.4223,2.422,2.4271,2.4259,2.4217,2.4313,2.4252,2.4261,2.4319,2.4337,2.4351,2.4353,2.4138,0,0,0,0,0,2.4356,2.4376,2.4343,2.4395,2.4393,2.4355,2.4363,2.4332,2.4324,2.4321,2.4302,2.4297,2.4313,2.4324,2.4336,2.4402,2.4398,2.4437,2.4452,2.4464,2.4472,2.451,2.4527,2.4338,2.4338,2.4337,0,0,2.4412,2.4395,2.441,2.4413,2.4405,2.4428,2.4354,2.438,2.4398,2.4325,2.4365,2.4352,2.4343,2.4399,2.4422,2.4391,2.4524,2.4474,2.4484,2.4486,2.4519,2.4537,2.4553,2.4343,2.4342,2.4341,0,0,2.4526,2.4514,2.4557,2.4551,2.4539,2.4514,2.4525,2.4502,2.449,2.4529,2.4476,2.4497,2.4524,2.452,2.4522,2.4639,2.4598,2.4644,2.472,2.4757,2.4772,2.4785,2.4829,2.4845,2.4652,2.4653,2.4653,0,2.4597,2.4629,2.4584,2.4615,2.4619,2.4555,2.4599,2.4595,2.4589,2.4594,2.4559,2.4593,2.4582,2.4638,2.4667,2.4669,2.4682,2.4646,2.4773,2.4786,2.4797,2.4839,2.4855,2.4659,2.4658,2.4657,2.4657,0,2.4719,2.4742,2.4778,2.4774,2.4782,2.4819,2.4781,2.4795,2.4764,2.4743,2.4786,2.4771,2.478,2.4791,2.476,2.4843,2.4824,2.4782,2.472,2.4822,2.486,2.4875,2.4667,2.4665,2.4663,2.4662,0,0,2.489,2.4862,2.4876,2.4875,2.4859,2.4876,2.4912,2.4921,2.4935,2.4934,2.4964,2.499,2.4951,2.4954,2.4923,2.4955,2.5051,2.4909,2.4908,2.4938,2.5144,2.5177,2.5196,2.5024,2.5027,2.5029,2.5146,0,2.5,2.5059,2.502,2.5086,2.5109,2.5049,2.5081,2.5076,2.5058,2.5075,2.5055,2.5076,2.5022,2.5024,2.5053,2.5033,2.5092,2.5024,2.5053,2.5055,2.5059,2.5215,2.525,2.5361,2.516,2.5162,2.5164,0,2.5136,2.5142,2.521,2.5192,2.52,2.5229,2.5236,2.5253,2.5247,2.5231,2.5236,2.5197,2.5233,2.5172,2.5222,2.5177,2.5186,2.5179,2.5182,2.5185,2.5117,2.5224,2.5395,2.5413,2.5187,2.5185,2.5183,0,2.5257,2.5281,2.5326,2.5326,2.5306,2.5328,2.5321,2.5312,2.5321,2.5327,2.5333,2.5343,2.5349,2.5359,2.5326,2.5283,2.5381,2.5316,2.5372,2.5373,2.5395,2.5395,2.5573,2.54,2.5399,2.5399,2.5399,0,2.5385,2.543,2.538,2.5408,2.5457,2.5413,2.5464,2.545,2.5443,2.5468,2.5417,2.5443,2.5396,2.5417,2.5391,2.5438,2.5441,2.5431,2.5424,2.5437,2.5438,2.5443,2.5435,2.5403,2.5402,2.5402,2.5401,0,2.5529,2.5497,2.5542,2.552,2.5515,2.5553,2.5535,2.556,2.5539,2.5573,2.5578,2.5546,2.5568,2.5536,2.5554,2.5537,2.5603,2.5583,2.5605,2.56,2.5658,2.5653,2.5846,2.587,2.568,2.5682,2.5684,0,2.5613,2.5646,2.5628,2.5642,2.5637,2.5659,2.5668,2.5627,2.5639,2.5636,2.5663,2.5681,2.5693,2.5733,2.5712,2.5727,2.5708,2.5775,2.571,2.5722,2.5712,2.5711,2.5715,2.5788,2.579,2.5792,2.5794,0,2.5767,2.5751,2.5765,2.5776,2.5788,2.5795,2.5797,2.5811,2.5768,2.5785,2.5807,2.5817,2.5837,2.5856,2.5866,2.586,2.5821,2.5814,2.5828,2.5842,2.5855,2.5851,2.5643,2.581,2.5809,2.5807,2.5807,2.5806,2.5885,2.5913,2.5905,2.5924,2.5922,2.5926,2.595,2.5933,2.5951,2.5964,2.5939,2.5968,2.5964,2.5973,2.5972,2.5995,2.5966,2.5986,2.5991,2.5997,2.6007,2.585,2.5996,2.5996,2.5995,2.5995,2.5995,0,2.6038,2.6031,2.6049,2.6055,2.6071,2.6032,2.6033,2.605,2.6076,2.6075,2.6089,2.6116,2.6136,2.6117,2.6133,2.6156,2.6139,2.6162,2.616,2.616,2.6031,2.6018,2.6176,2.6176,2.6176,2.6176,2.6176,2.6176,2.612,2.6166,2.6149,2.6195,2.6187,2.6215,2.622,2.6224,2.6223,2.6256,2.6272,2.626,2.6253,2.6268,2.6285,2.6279,2.6289,2.6319,2.6307,2.6187,2.6169,2.6152,2.614,2.6321,2.6321,2.6435,2.6436,2.6436]},{"header":{"parameterUnit":"m.s-1","parameterCategory":1,"la1":30.2991,"la2":30.254,"lo1":-89.0895,"lo2":-89.0444,"dy":0.0017,"dx":0.0017,"nx":28,"ny":28,"refTime":"2023-07-31T21:00:00:Z","depth":0,"parameterNumber":3,"parameterNumberName":"V-component_of_WINDS"},"data":[0,0,0,0,0,0,0,0,0,0,0,0,0,0,0,0,0,0,0,0,0,0,0,0,0,0,0,0,0,0,0,0,0,0,0,0,0,0,0,0,0,0,0,0,0,0,0,0,0,0,0,0,0,0,0,0,0,0,-1.4995,-1.4994,0,-1.4968,-1.4968,-1.4967,-1.495,-1.495,-1.495,-1.495,-1.4921,-1.4921,-1.492,0,0,0,0,0,0,0,0,0,0,0,0,0,-1.5031,-1.503,-1.4995,-1.4994,-1.4994,-1.4968,-1.4968,-1.4967,-1.495,-1.495,-1.495,-1.4949,-1.4922,-1.4921,-1.492,0,0,0,0,0,0,0,0,0,0,0,0,0,-1.5011,-1.503,-1.4995,-1.4982,-1.4981,-1.4968,-1.4968,-1.4967,-1.495,-1.495,-1.495,-1.4949,-1.4922,-1.4921,-1.492,-1.4918,0,0,-1.4917,-1.4917,0,0,0,0,0,0,0,0,-1.5012,-1.501,-1.4984,-1.4983,-1.4981,-1.4962,-1.497,-1.4951,-1.495,-1.4962,-1.495,-1.4949,-1.4935,-1.4933,-1.4928,-1.4916,-1.4915,-1.4917,-1.4916,-1.4916,-1.4916,0,0,0,0,0,0,0,-1.5013,-1.5011,-1.4984,-1.4984,-1.4982,-1.4978,-1.4975,-1.4966,-1.495,-1.4961,-1.4959,-1.4956,-1.4934,-1.4929,-1.4928,-1.4915,-1.4917,-1.4916,-1.4916,-1.4915,-1.4902,-1.4902,0,0,0,0,0,0,-1.5017,-1.5012,-1.4985,-1.4983,-1.4997,-1.4978,-1.4974,-1.4968,-1.495,-1.4947,-1.4957,-1.4956,-1.4931,-1.4929,-1.4927,-1.4924,-1.4916,-1.4915,-1.4915,-1.4902,-1.4902,-1.4902,0,0,0,0,0,0,-1.5018,-1.5015,-1.4986,-1.4997,-1.4993,-1.4977,-1.4971,-1.4968,-1.4963,-1.4947,-1.4944,-1.4955,-1.4931,-1.4928,-1.4921,-1.4923,-1.4915,-1.4914,-1.4901,-1.4902,-1.4902,-1.4918,0,0,0,0,0,0,-1.5019,-1.5015,-1.5013,-1.4997,-1.4993,-1.498,-1.4971,-1.4968,-1.4962,-1.496,-1.4944,-1.4941,-1.493,-1.4922,-1.492,-1.4921,-1.4913,-1.4901,-1.4902,-1.4902,-1.4917,-1.4919,-1.492,0,0,0,0,0,-1.502,-1.5018,-1.5013,-1.501,-1.4991,-1.498,-1.4978,-1.4966,-1.4962,-1.4961,-1.495,-1.4942,-1.4923,-1.4922,-1.4919,-1.492,-1.4901,-1.4901,-1.4902,-1.4916,-1.4918,-1.492,0,0,0,0,0,0,-1.5034,-1.5016,-1.501,-1.5003,-1.4994,-1.4977,-1.4975,-1.4968,-1.4959,-1.4958,-1.4943,-1.494,-1.4934,-1.4926,-1.4925,-1.4918,-1.4911,-1.4911,-1.4923,-1.4925,-1.4926,-1.4928,-1.4912,0,0,0,0,0,-1.5036,-1.5029,-1.5014,-1.5009,-1.5005,-1.4991,-1.4986,-1.4978,-1.4967,-1.4963,-1.4952,-1.4942,-1.4934,-1.4929,-1.4921,-1.4916,-1.4913,-1.4916,-1.4917,-1.4919,-1.4919,-1.4918,-1.492,-1.4904,-1.4904,-1.4904,0,0,-1.504,-1.503,-1.5026,-1.5012,-1.5003,-1.4997,-1.4987,-1.4981,-1.4976,-1.4962,-1.4955,-1.4947,-1.4935,-1.4929,-1.4926,-1.4923,-1.4923,-1.4919,-1.4921,-1.492,-1.4919,-1.492,-1.4922,-1.4904,-1.4904,-1.4904,0,0,-1.5045,-1.5036,-1.5032,-1.5025,-1.5013,-1.5004,-1.5003,-1.4989,-1.4983,-1.4976,-1.4966,-1.4961,-1.4947,-1.4939,-1.4934,-1.4939,-1.4931,-1.4937,-1.4945,-1.4944,-1.4945,-1.4946,-1.495,-1.4951,-1.4937,-1.4937,-1.4937,0,-1.5052,-1.5042,-1.5031,-1.5025,-1.502,-1.5008,-1.5005,-1.4998,-1.4983,-1.498,-1.4976,-1.4961,-1.4951,-1.4945,-1.4947,-1.4942,-1.4942,-1.4938,-1.4946,-1.4947,-1.4948,-1.4951,-1.4952,-1.4938,-1.4938,-1.4938,-1.4938,0,-1.5052,-1.5046,-1.5044,-1.5032,-1.5026,-1.5022,-1.501,-1.5006,-1.5,-1.4992,-1.4986,-1.4975,-1.4965,-1.4963,-1.4956,-1.4957,-1.4955,-1.4949,-1.4942,-1.495,-1.4953,-1.4954,-1.4939,-1.4939,-1.4939,-1.4938,0,0,-1.5062,-1.5046,-1.5046,-1.5042,-1.5029,-1.5024,-1.502,-1.5011,-1.5009,-1.5,-1.4997,-1.4987,-1.4982,-1.4976,-1.4968,-1.4967,-1.4975,-1.4961,-1.4961,-1.4965,-1.4977,-1.4982,-1.4984,-1.497,-1.497,-1.497,-1.4978,0,-1.5066,-1.5058,-1.5049,-1.5045,-1.504,-1.503,-1.5026,-1.5019,-1.5012,-1.5007,-1.5,-1.4993,-1.4987,-1.4983,-1.4982,-1.4974,-1.4977,-1.4973,-1.4967,-1.4967,-1.4971,-1.4985,-1.4989,-1.4998,-1.4979,-1.4979,-1.498,0,-1.5068,-1.5062,-1.5057,-1.5048,-1.5045,-1.5042,-1.5035,-1.503,-1.5022,-1.5018,-1.5012,-1.5004,-1.5001,-1.4995,-1.499,-1.4988,-1.4986,-1.4981,-1.4982,-1.498,-1.4974,-1.4985,-1.5,-1.5001,-1.4981,-1.4981,-1.4981,0,-1.5078,-1.5068,-1.5065,-1.5061,-1.5049,-1.5048,-1.5043,-1.5035,-1.5031,-1.5025,-1.5023,-1.5016,-1.5012,-1.5008,-1.4999,-1.4995,-1.4996,-1.4989,-1.4993,-1.4993,-1.4993,-1.4993,-1.5008,-1.4991,-1.4991,-1.4991,-1.4991,0,-1.5083,-1.5081,-1.5069,-1.5067,-1.5065,-1.5055,-1.5054,-1.5048,-1.5041,-1.5038,-1.5029,-1.5027,-1.5015,-1.5012,-1.5005,-1.5003,-1.5001,-1.4998,-1.4996,-1.4999,-1.5,-1.4997,-1.4997,-1.4991,-1.4991,-1.4991,-1.4991,0,-1.5093,-1.5085,-1.5081,-1.5071,-1.5068,-1.5068,-1.5059,-1.5058,-1.5051,-1.5048,-1.5047,-1.5037,-1.5033,-1.5024,-1.5017,-1.5012,-1.5013,-1.5009,-1.5016,-1.5015,-1.502,-1.502,-1.5034,-1.5036,-1.5017,-1.5017,-1.5017,0,-1.5096,-1.5095,-1.5086,-1.5084,-1.5079,-1.5076,-1.5073,-1.5064,-1.5061,-1.5054,-1.5053,-1.5049,-1.5044,-1.5039,-1.5031,-1.5026,-1.5023,-1.5029,-1.5022,-1.5026,-1.5024,-1.5025,-1.5025,-1.503,-1.503,-1.503,-1.503,0,-1.5104,-1.5101,-1.5097,-1.5092,-1.5089,-1.5085,-1.508,-1.5079,-1.507,-1.5067,-1.5064,-1.5061,-1.5055,-1.5051,-1.5046,-1.5041,-1.5035,-1.5033,-1.5034,-1.5036,-1.5041,-1.504,-1.502,-1.5032,-1.5032,-1.5032,-1.5032,-1.5032,-1.5111,-1.511,-1.5104,-1.5101,-1.5097,-1.5094,-1.5092,-1.5087,-1.5084,-1.5079,-1.5074,-1.5072,-1.5066,-1.5059,-1.5055,-1.5053,-1.505,-1.505,-1.5051,-1.5051,-1.5053,-1.5041,-1.5052,-1.5052,-1.5052,-1.5052,-1.5052,0,-1.5119,-1.5116,-1.5113,-1.5108,-1.5106,-1.5101,-1.5096,-1.5095,-1.5093,-1.5089,-1.5086,-1.5083,-1.508,-1.5073,-1.507,-1.507,-1.5067,-1.5069,-1.5069,-1.5069,-1.5056,-1.5056,-1.5072,-1.5072,-1.5072,-1.5072,-1.5072,-1.5072,-1.5123,-1.5122,-1.5119,-1.5116,-1.5113,-1.5111,-1.5109,-1.5106,-1.5103,-1.5101,-1.5098,-1.5095,-1.509,-1.5087,-1.5084,-1.5082,-1.5082,-1.5085,-1.5083,-1.5071,-1.5069,-1.5067,-1.5067,-1.5085,-1.5085,-1.5096,-1.5096,-1.5096]}]]